Weather Roundup
Issued by NWS Springfield, MO

Home | Current Version | Previous Version | Text Only | Print | Product List | Glossary On
Versions: 1 2 3 4 5 6 7 8 9 10 11 12 13 14 15 16 17 18 19 20 21 22 23 24 25 26 27 28 29 30 31 32 33 34 35 36 37 38 39 40 41 42 43 44 45 46 47 48 49 50
000
NZUS99 KSGF 302107
HRRSGF

HOURLY WEATHER
NATIONAL WEATHER SERVICE SPRINGFIELD MO
400 PM CDT SAT JUL 30 2016

......SGF CWA......

CITY           SKY/WX    TMP DP  RH WIND       PRES   REMARKS
SPRINGFIELD    CLOUDY    85  66  53 VRB5      30.00F
JOPLIN         CLOUDY    85  70  60 VRB5      29.95F
WEST PLAINS    CLOUDY    85  66  53 W7        30.02F
ROLLA          MOSUNNY   84  66  54 NW12      30.00S
OSAGE BEACH    PTSUNNY   83  68  60 VRB3      30.00F
BRANSON        CLOUDY    81  72  74 SW3       30.01F THUNDER

......SURROUNDING SGF CWA......

CITY           SKY/WX    TMP DP  RH WIND       PRES   REMARKS
CHANUTE        MOSUNNY   88  71  57 SE8       29.95F HX  94
PARSONS        PTSUNNY   88  71  57 VRB6      29.96F HX  94
COFFEYVILLE    CLOUDY    87  71  58 E8        29.94F HX  93
EMPORIA        SUNNY     88  69  53 SE12      29.96F HX  92
GROVE OK       CLOUDY    75  70  83 CALM      29.96F
ROGERS AR      LGT RAIN  70  68  93 E3        29.98F
SILOAM SPRINGS CLOUDY    72  63  73 SE8       29.97F
HARRISON AR    CLOUDY    69  68  96 W3        30.02F THUNDER
NEAR YELLVILLE CLOUDY    84  70  61 W3        29.98R

......KANSAS AND MISSOURI......

CITY           SKY/WX    TMP DP  RH WIND       PRES   REMARKS
KANSAS CTY INT CLOUDY    80  64  58 CALM      29.99F
DOWNTOWN KC    MOSUNNY   84  64  50 NE3       29.97F
COLUMBIA       MOSUNNY   81  64  56 NW8       30.00F
SEDALIA        PTSUNNY   83  68  60 NW6       30.02S
ST JOSEPH      CLOUDY    79  68  69 S6        29.98F
ST LOUIS       MOSUNNY   84  66  54 NW12      29.98F
SPIRIT OF STL  MOSUNNY   87  66  49 NW13      29.96F
KIRKSVILLE     CLOUDY    81  63  54 SW8       30.01F
WICHITA        MOSUNNY   88  67  49 SE8       29.94F HX  91
TOPEKA         PTSUNNY   79  69  71 E12       29.99S
OLATHE         SUNNY     84  64  50 CALM      30.00F

......TENNESSEE......

CITY           SKY/WX    TMP DP  RH WIND       PRES   REMARKS
MEMPHIS        MOSUNNY   91  73  55 VRB3      29.97F HX  99
NASHVILLE      PTSUNNY   87  69  54 S6        29.98F HX  91

......ARKANSAS.......

CITY           SKY/WX    TMP DP  RH WIND       PRES   REMARKS
FAYETTEVILLE   CLOUDY    71  70  96 SE5       29.98F
FT SMITH       CLOUDY    84  70  62 E5        29.97R
LITTLE ROCK    PTSUNNY   92  72  51 VRB3      29.95F HX  99

......OKLAHOMA.......

CITY           SKY/WX    TMP DP  RH WIND       PRES   REMARKS
TULSA          PTSUNNY   82  72  71 VRB5      29.93F
PONCA CITY     SUNNY     88  70  55 S7        29.94S HX  93
MCALESTER      SUNNY     94  74  52 VRB3      29.94F HX 104
OKLAHOMA CITY  MOSUNNY   90  74  59 VRB3      29.95F HX  99

......IOWA............

CITY           SKY/WX    TMP DP  RH WIND       PRES   REMARKS
DES MOINES     PTSUNNY   79  65  62 S6        29.98F
QUAD CITIES    CLOUDY    80  66  62 VRB3      29.97S

......ILLINOIS........

CITY           SKY/WX    TMP DP  RH WIND       PRES   REMARKS
QUINCY         PTSUNNY   79  67  66 SW5       29.98F
CHICAGO        PTSUNNY   77  64  64 NE10      29.98S



USA.gov is the U.S. government's official web portal to all federal, state and local government web resources and services.